Warroad, MN

1:23 AM CDT on May 26, 2018 (GMT -0500)
Warroad International-Carlson

Weather History for KRRT - May, 2012

Change the Weather History Date:

Thursday, May 31, 2012

  Actual Average Record
Temperature  
Mean Temperature 54 °F -  
Max Temperature 69 °F 69 °F 86 °F (1988)
Min Temperature 39 °F 48 °F 26 °F (1964)
Degree Days  
Heating Degree Days 11    
Growing Degree Days 4 (Base 50)    
Moisture  
Dew Point 37 °F    
Average Humidity 55    
Maximum Humidity 87    
Minimum Humidity 27    
Precipitation  
Precipitation 0.00 in - - ()
Sea Level Pressure  
Sea Level Pressure 30.00 in    
Wind  
Wind Speed 2 mph (SSW)    
Max Wind Speed 9 mph    
Max Gust Speed -    
Visibility 7 miles    
Events Fog    
Averages and records for this station are not official NWS values.
T = Trace of Precipitation, MM = Missing Value Source: NWS Daily Summary

Daily Weather History Graph

Daily Weather History Graph

Search for Another Location

Airport or City:

Astronomy

May. 31, 2012 Rise Set
Actual Time 5:22 AM CDT 9:16 PM CDT
Civil Twilight 4:41 AM CDT 9:57 PM CDT
Nautical Twilight 3:44 AM CDT 10:54 PM CDT
Astronomical Twilight 2:14 AM CDT 12:27 AM CDT
Moon 4:50 PM CDT (5/31) 2:42 AM CDT (5/31)
Length of Visible Light 17h 16m
Length of Day
15h 54m
Waxing Gibbous, 80% of the Moon is Illuminated
May 31
Waxing Gibbous
Jun 4
Full
Jun 11
Last Quarter
Jun 19
New
Jun 26
First Quarter

Hourly Weather History & Observations

Time (CDT) Temp. Windchill Dew Point Humidity Pressure Visibility Wind Dir Wind Speed Gust Speed Precip Events Conditions
12:13 AM 42.8 °F - 37.4 °F 81% 30.02 in 0.8 mi Calm Calm - N/A   Mist
12:34 AM 41.0 °F - 37.4 °F 87% 30.02 in 0.5 mi Calm Calm - N/A Fog Fog
12:54 AM 41.0 °F - 37.4 °F 87% 30.02 in 10.0 mi Calm Calm - N/A   Clear
1:14 AM 39.2 °F - 35.6 °F 87% 30.02 in 5.0 mi Calm Calm - N/A   Clear
1:34 AM 42.8 °F - 37.4 °F 81% 30.02 in 10.0 mi Calm Calm - N/A   Clear
1:54 AM 41.0 °F - 37.4 °F 87% 30.02 in 7.0 mi Calm Calm - N/A   Clear
2:13 AM 41.0 °F - 37.4 °F 87% 30.02 in 10.0 mi Calm Calm - N/A   Clear
2:34 AM 41.0 °F 39.0 °F 37.4 °F 87% 30.03 in 4.0 mi South 3.5 mph - N/A   Clear
2:54 AM 41.0 °F - 37.4 °F 87% 30.03 in 10.0 mi Calm Calm - N/A   Clear
3:13 AM 42.8 °F 41.1 °F 37.4 °F 81% 30.03 in 4.0 mi SSW 3.5 mph - N/A   Haze
3:34 AM 41.0 °F - 37.4 °F 87% 30.03 in 10.0 mi Calm Calm - N/A   Clear
3:54 AM 41.0 °F - 35.6 °F 81% 30.04 in 7.0 mi Calm Calm - N/A   Clear
4:13 AM 42.8 °F - 35.6 °F 76% 30.04 in 1.5 mi Calm Calm - N/A   Haze
4:34 AM 41.0 °F - 35.6 °F 81% 30.04 in 2.5 mi Calm Calm - N/A   Haze
4:54 AM 41.0 °F - 35.6 °F 81% 30.04 in 1.0 mi Calm Calm - N/A   Haze
5:13 AM 41.0 °F 39.0 °F 35.6 °F 81% 30.05 in 0.5 mi WSW 3.5 mph - N/A   Haze
5:34 AM 39.2 °F 37.0 °F 33.8 °F 81% 30.05 in 0.2 mi WSW 3.5 mph - N/A   Haze
5:54 AM 39.2 °F - 35.6 °F 87% 30.05 in 0.8 mi Calm Calm - N/A   Mist
6:13 AM 39.2 °F - 35.6 °F 87% 30.06 in 5.0 mi Calm Calm - N/A   Clear
6:34 AM 42.8 °F - 37.4 °F 81% 30.06 in 0.2 mi Calm Calm - N/A   Haze
6:54 AM 42.8 °F - 37.4 °F 81% 30.06 in 0.5 mi Calm Calm - N/A   Haze
7:13 AM 46.4 °F 45.2 °F 39.2 °F 76% 30.07 in 0.2 mi SSW 3.5 mph - N/A   Haze
7:34 AM 48.2 °F - 39.2 °F 71% 30.06 in 0.2 mi SSW 3.5 mph - N/A   Haze
7:54 AM 48.2 °F - 39.2 °F 71% 30.07 in 0.2 mi SSW 4.6 mph - N/A   Haze
8:14 AM 51.8 °F - 42.8 °F 71% 30.07 in 0.2 mi SSW 5.8 mph - N/A   Haze
8:34 AM 53.6 °F - 42.8 °F 67% 30.07 in 1.0 mi SSW 4.6 mph - N/A   Haze
9:13 AM 57.2 °F - 46.4 °F 67% 30.06 in 1.2 mi South 4.6 mph - N/A   Haze
9:34 AM 57.2 °F - 42.8 °F 59% 30.06 in 4.0 mi South 4.6 mph - N/A   Haze
9:54 AM 59.0 °F - 42.8 °F 55% 30.06 in 1.5 mi Calm Calm - N/A   Haze
10:14 AM 60.8 °F - 39.2 °F 45% 30.06 in 10.0 mi SSW 5.8 mph - N/A   Clear
10:34 AM 60.8 °F - 37.4 °F 42% 30.06 in 10.0 mi Calm Calm - N/A   Clear
10:53 AM 60.8 °F - 39.2 °F 45% 30.06 in 10.0 mi South 6.9 mph - N/A   Clear
11:14 AM 62.6 °F - 37.4 °F 39% 30.05 in 10.0 mi SSE 6.9 mph - N/A   Clear
11:33 AM 62.6 °F - 37.4 °F 39% 30.05 in 10.0 mi SSE 9.2 mph - N/A   Clear
11:54 AM 62.6 °F - 37.4 °F 39% 30.05 in 10.0 mi SSE 6.9 mph - N/A   Clear
12:14 PM 64.4 °F - 37.4 °F 37% 30.04 in 10.0 mi South 6.9 mph - N/A   Clear
12:34 PM 64.4 °F - 37.4 °F 37% 30.03 in 7.0 mi South 5.8 mph - N/A   Clear
12:54 PM 64.4 °F - 37.4 °F 37% 30.03 in 10.0 mi South 4.6 mph - N/A   Clear
1:13 PM 64.4 °F - 37.4 °F 37% 30.02 in 10.0 mi South 3.5 mph - N/A   Clear
1:34 PM 64.4 °F - 37.4 °F 37% 30.01 in 10.0 mi SSW 5.8 mph - N/A   Clear
1:54 PM 66.2 °F - 35.6 °F 32% 30.02 in 10.0 mi SSW 5.8 mph - N/A   Clear
2:14 PM 66.2 °F - 37.4 °F 35% 30.00 in 10.0 mi SSW 8.1 mph - N/A   Clear
2:34 PM 66.2 °F - 35.6 °F 32% 30.00 in 10.0 mi SSW 8.1 mph - N/A   Clear
2:53 PM 66.2 °F - 35.6 °F 32% 29.99 in 10.0 mi South 4.6 mph - N/A   Clear
3:14 PM 68.0 °F - 33.8 °F 28% 29.99 in 10.0 mi SW 5.8 mph - N/A   Clear
3:34 PM 68.0 °F - 33.8 °F 28% 29.98 in 10.0 mi WSW 4.6 mph - N/A   Clear
3:54 PM 68.0 °F - 35.6 °F 30% 29.98 in 10.0 mi SW 8.1 mph - N/A   Clear
4:14 PM 69.8 °F - 33.8 °F 27% 29.97 in 10.0 mi WNW 3.5 mph - N/A   Clear
4:34 PM 69.8 °F - 35.6 °F 28% 29.96 in 10.0 mi Calm Calm - N/A   Clear
4:54 PM 69.8 °F - 33.8 °F 27% 29.96 in 10.0 mi South 4.6 mph - N/A   Clear
5:14 PM 69.8 °F - 35.6 °F 28% 29.96 in 10.0 mi SW 5.8 mph - N/A   Clear
5:33 PM 69.8 °F - 35.6 °F 28% 29.96 in 10.0 mi SW 8.1 mph - N/A   Clear
5:54 PM 69.8 °F - 35.6 °F 28% 29.95 in 10.0 mi SSW 5.8 mph - N/A   Clear
6:14 PM 69.8 °F - 37.4 °F 31% 29.94 in 10.0 mi SW 8.1 mph - N/A   Clear
6:34 PM 69.8 °F - 37.4 °F 31% 29.94 in 10.0 mi South 4.6 mph - N/A   Clear
6:54 PM 69.8 °F - 37.4 °F 31% 29.93 in 10.0 mi South 6.9 mph - N/A   Clear
7:14 PM 69.8 °F - 37.4 °F 31% 29.93 in 3.0 mi South 4.6 mph - N/A   Haze
7:34 PM 69.8 °F - 37.4 °F 31% 29.93 in 10.0 mi South 5.8 mph - N/A   Clear
7:54 PM 68.0 °F - 37.4 °F 33% 29.92 in 10.0 mi South 4.6 mph - N/A   Clear
8:14 PM 66.2 °F - 37.4 °F 35% 29.92 in 10.0 mi South 4.6 mph - N/A   Clear
8:34 PM 64.4 °F - 37.4 °F 37% 29.92 in 10.0 mi South 3.5 mph - N/A   Clear
9:14 PM 62.6 °F - 37.4 °F 39% 29.92 in 10.0 mi Calm Calm - N/A   Clear
9:34 PM 60.8 °F - 37.4 °F 42% 29.92 in 10.0 mi Calm Calm - N/A   Clear
9:54 PM 59.0 °F - 39.2 °F 48% 29.92 in 10.0 mi SSW 3.5 mph - N/A   Clear
10:14 PM 57.2 °F - 37.4 °F 48% 29.92 in 10.0 mi Calm Calm - N/A   Clear
10:34 PM 57.2 °F - 37.4 °F 48% 29.92 in 10.0 mi Calm Calm - N/A   Clear
10:54 PM 55.4 °F - 37.4 °F 51% 29.92 in 10.0 mi Calm Calm - N/A   Clear
11:14 PM 55.4 °F - 39.2 °F 54% 29.92 in 10.0 mi SSW 3.5 mph - N/A   Clear
11:34 PM 53.6 °F - 39.2 °F 58% 29.92 in 10.0 mi SSW 4.6 mph - N/A   Clear
11:54 PM 53.6 °F - 39.2 °F 58% 29.92 in 10.0 mi Calm Calm - N/A   Clear